RAF31 EGVN-LPLA

Flight info

Callsign RAF31
Flight time 3h 25m
Altitude 32000
Route PACSE DCT PEWBI DCT LESLU/M063F320 DCT BEDRA DCT 45N020W DCT ANAVA H122 DOLER
Aircraft A400/H-SDE2E3FGHIJ4J5M1RWXY/LB1D1

Departure

Time 2026-04-27 11:28
Airport RAF Brize Norton (EGVN)

Arrival

Time 2026-04-27 14:54
Airport Lajes Airport (LPLA)
Time Latitude Longitude Altitude Speed Heading
2026-04-27 10:55 51.75606 -1.57335 273 ft 0 kts 289°
2026-04-27 11:22 51.75608 -1.57346 273 ft 0 kts 289°
2026-04-27 11:22 51.75608 -1.57347 273 ft 0 kts 289°
2026-04-27 11:23 51.75610 -1.57353 273 ft 6 kts 289°
2026-04-27 11:23 51.75602 -1.57526 273 ft 19 kts 268°
2026-04-27 11:24 51.75593 -1.57675 277 ft 8 kts 217°
2026-04-27 11:24 51.75538 -1.57720 273 ft 10 kts 207°
2026-04-27 11:24 51.75468 -1.57776 273 ft 12 kts 206°
2026-04-27 11:24 51.75387 -1.57843 273 ft 14 kts 207°
2026-04-27 11:25 51.75299 -1.57918 276 ft 14 kts 211°
2026-04-27 11:25 51.75224 -1.57987 274 ft 13 kts 210°
2026-04-27 11:25 51.75141 -1.58055 276 ft 14 kts 207°
2026-04-27 11:25 51.75055 -1.58091 276 ft 11 kts 135°
2026-04-27 11:26 51.75066 -1.57944 275 ft 17 kts 72°
2026-04-27 11:26 51.75108 -1.57723 274 ft 24 kts 73°
2026-04-27 11:26 51.75159 -1.57440 273 ft 28 kts 73°
2026-04-27 11:26 51.75219 -1.57117 272 ft 31 kts 74°
2026-04-27 11:27 51.75280 -1.56763 272 ft 33 kts 74°
2026-04-27 11:27 51.75345 -1.56404 276 ft 33 kts 74°
2026-04-27 11:27 51.75379 -1.56134 275 ft 6 kts 48°
2026-04-27 11:27 51.75390 -1.56144 275 ft 3 kts 300°
2026-04-27 11:28 51.75375 -1.56248 279 ft 32 kts 252°
2026-04-27 11:28 51.75198 -1.57196 273 ft 142 kts 253°
2026-04-27 11:28 51.74837 -1.59049 523 ft 192 kts 251°
2026-04-27 11:28 51.74410 -1.61166 1374 ft 197 kts 252°
2026-04-27 11:29 51.73987 -1.63365 2211 ft 219 kts 252°
2026-04-27 11:29 51.73475 -1.65893 2758 ft 250 kts 250°
2026-04-27 11:29 51.72877 -1.68628 3617 ft 265 kts 249°
2026-04-27 11:29 51.72234 -1.71417 4673 ft 270 kts 249°
2026-04-27 11:30 51.71558 -1.74249 5903 ft 271 kts 249°
2026-04-27 11:30 51.70873 -1.77082 7122 ft 272 kts 249°
2026-04-27 11:30 51.70176 -1.79947 8262 ft 276 kts 250°
2026-04-27 11:30 51.69471 -1.82844 9388 ft 279 kts 250°
2026-04-27 11:31 51.68759 -1.85770 10520 ft 282 kts 250°
2026-04-27 11:31 51.68279 -1.87741 11143 ft 289 kts 250°
2026-04-27 11:31 51.67535 -1.90804 12040 ft 297 kts 250°
2026-04-27 11:31 51.66772 -1.93940 12991 ft 303 kts 250°
2026-04-27 11:32 51.65995 -1.97134 13917 ft 309 kts 250°
2026-04-27 11:32 51.65202 -2.00384 14826 ft 315 kts 250°
2026-04-27 11:32 51.64394 -2.03697 15727 ft 320 kts 251°
2026-04-27 11:32 51.63573 -2.07052 16618 ft 325 kts 251°
2026-04-27 11:33 51.62737 -2.10467 17487 ft 331 kts 251°
2026-04-27 11:33 51.61884 -2.13946 18362 ft 336 kts 251°
2026-04-27 11:33 51.61022 -2.17459 19224 ft 340 kts 251°
2026-04-27 11:33 51.60146 -2.21019 20101 ft 344 kts 251°
2026-04-27 11:34 51.59258 -2.24614 20967 ft 348 kts 251°
2026-04-27 11:34 51.58360 -2.28249 21798 ft 352 kts 251°
2026-04-27 11:34 51.57451 -2.31924 22612 ft 356 kts 251°
2026-04-27 11:34 51.56531 -2.35638 23399 ft 360 kts 250°
2026-04-27 11:35 51.55597 -2.39401 24143 ft 364 kts 250°
2026-04-27 11:35 51.54655 -2.43187 24842 ft 367 kts 250°
2026-04-27 11:35 51.53701 -2.47017 25506 ft 371 kts 250°
2026-04-27 11:35 51.52735 -2.50883 26118 ft 375 kts 250°
2026-04-27 11:36 51.51760 -2.54783 26726 ft 378 kts 250°
2026-04-27 11:36 51.50788 -2.58664 27269 ft 381 kts 250°
2026-04-27 11:36 51.49791 -2.62639 27782 ft 385 kts 250°
2026-04-27 11:36 51.48786 -2.66638 28286 ft 388 kts 250°
2026-04-27 11:37 51.47770 -2.70673 28753 ft 391 kts 250°
2026-04-27 11:37 51.46744 -2.74745 29218 ft 394 kts 250°
2026-04-27 11:37 51.45710 -2.78836 29646 ft 397 kts 250°
2026-04-27 11:37 51.44664 -2.82968 30045 ft 401 kts 250°
2026-04-27 11:38 51.43623 -2.87076 30431 ft 403 kts 250°
2026-04-27 11:38 51.42565 -2.91239 30937 ft 402 kts 250°
2026-04-27 11:38 51.41511 -2.95378 31458 ft 401 kts 250°
2026-04-27 11:38 51.40457 -2.99507 31926 ft 400 kts 250°
2026-04-27 11:39 51.39406 -3.03616 32255 ft 401 kts 250°
2026-04-27 11:39 51.38369 -3.07779 32318 ft 401 kts 253°
2026-04-27 11:39 51.37334 -3.16468 32322 ft 397 kts 267°
2026-04-27 11:40 51.37013 -3.25304 32318 ft 398 kts 270°
2026-04-27 11:40 51.36825 -3.34169 32320 ft 399 kts 271°
2026-04-27 11:41 51.36633 -3.43030 32321 ft 401 kts 271°
2026-04-27 11:41 51.36411 -3.51957 32321 ft 402 kts 271°
2026-04-27 11:42 51.36170 -3.60901 32322 ft 403 kts 271°
2026-04-27 11:42 51.35919 -3.69895 32318 ft 405 kts 271°
2026-04-27 11:43 51.35662 -3.78896 32321 ft 406 kts 271°
2026-04-27 11:43 51.35398 -3.87924 32312 ft 406 kts 271°
2026-04-27 11:44 51.35128 -3.96952 32309 ft 407 kts 271°
2026-04-27 11:44 51.34850 -4.05948 32303 ft 409 kts 271°
2026-04-27 11:45 51.34612 -4.13531 32302 ft 411 kts 271°
2026-04-27 11:45 51.34266 -4.24216 32302 ft 412 kts 271°
2026-04-27 11:46 51.33961 -4.33393 32302 ft 412 kts 271°
2026-04-27 11:46 51.33651 -4.42542 32296 ft 412 kts 271°
2026-04-27 11:47 51.33333 -4.51701 32294 ft 413 kts 271°
2026-04-27 11:47 51.33009 -4.60818 32302 ft 413 kts 271°
2026-04-27 11:48 51.32676 -4.69991 32303 ft 413 kts 271°
2026-04-27 11:48 51.32337 -4.79165 32303 ft 413 kts 271°
2026-04-27 11:49 51.31988 -4.88347 32303 ft 413 kts 271°
2026-04-27 11:49 51.31634 -4.97529 32303 ft 414 kts 270°
2026-04-27 11:50 51.31154 -5.06710 32303 ft 416 kts 267°
2026-04-27 11:50 51.30324 -5.15822 32303 ft 417 kts 265°
2026-04-27 11:51 51.29397 -5.24996 32313 ft 418 kts 265°
2026-04-27 11:51 51.28389 -5.34457 29593 ft 453 kts 260°
2026-04-27 11:52 51.27668 -5.39218 30132 ft 434 kts 263°
2026-04-27 11:52 51.27164 -5.43939 30417 ft 429 kts 266°
2026-04-27 11:52 51.26790 -5.48648 30666 ft 426 kts 268°
2026-04-27 11:52 51.26448 -5.53348 30916 ft 426 kts 268°
2026-04-27 11:53 51.26092 -5.57995 31166 ft 425 kts 267°
2026-04-27 11:53 51.25701 -5.62676 31411 ft 425 kts 266°
2026-04-27 11:53 51.25278 -5.67355 31646 ft 425 kts 266°
2026-04-27 11:53 51.24835 -5.72002 31909 ft 424 kts 266°
2026-04-27 11:54 51.24378 -5.76653 32158 ft 423 kts 265°
2026-04-27 11:54 51.23916 -5.81293 32311 ft 424 kts 265°
2026-04-27 11:54 51.23450 -5.85932 32313 ft 423 kts 265°
2026-04-27 11:55 51.22516 -5.95183 32322 ft 422 kts 265°
2026-04-27 11:55 51.21585 -6.04380 32321 ft 422 kts 266°
2026-04-27 11:56 51.20638 -6.13688 32322 ft 425 kts 266°
2026-04-27 11:56 51.19679 -6.23021 32321 ft 426 kts 266°
2026-04-27 11:57 51.18720 -6.32272 32322 ft 426 kts 265°
2026-04-27 11:57 51.17745 -6.41597 32328 ft 426 kts 265°
2026-04-27 11:58 51.16765 -6.50917 32337 ft 426 kts 265°
2026-04-27 11:58 51.15775 -6.60246 32344 ft 427 kts 265°
2026-04-27 11:59 51.14778 -6.69585 32355 ft 427 kts 265°
2026-04-27 11:59 51.13772 -6.78913 32350 ft 427 kts 265°
2026-04-27 12:00 51.12762 -6.88198 32352 ft 428 kts 265°
2026-04-27 12:00 51.11738 -6.97542 32348 ft 428 kts 265°
2026-04-27 12:01 51.10707 -7.06895 32345 ft 429 kts 265°
2026-04-27 12:01 51.09667 -7.16258 32358 ft 430 kts 265°
2026-04-27 12:02 51.08619 -7.25610 32358 ft 430 kts 265°
2026-04-27 12:02 51.07568 -7.34925 32353 ft 430 kts 265°
2026-04-27 12:03 51.06503 -7.44304 32351 ft 430 kts 265°
2026-04-27 12:03 51.05430 -7.53662 32355 ft 431 kts 264°
2026-04-27 12:04 51.04348 -7.63035 32362 ft 432 kts 264°
2026-04-27 12:04 51.03256 -7.72416 32363 ft 432 kts 264°
2026-04-27 12:05 51.02157 -7.81801 32359 ft 432 kts 264°
2026-04-27 12:05 51.01051 -7.91190 32362 ft 432 kts 264°
2026-04-27 12:06 50.99737 -8.00534 32350 ft 437 kts 256°
2026-04-27 12:06 50.97675 -8.09645 32357 ft 440 kts 253°
2026-04-27 12:07 50.95444 -8.18709 32354 ft 441 kts 252°
2026-04-27 12:07 50.93176 -8.27766 32359 ft 441 kts 252°
2026-04-27 12:08 50.90930 -8.36751 32363 ft 441 kts 252°
2026-04-27 12:08 50.88667 -8.45814 32365 ft 441 kts 252°
2026-04-27 12:09 50.86408 -8.54840 32374 ft 441 kts 252°
2026-04-27 12:09 50.84136 -8.63877 32375 ft 441 kts 252°
2026-04-27 12:10 50.81861 -8.72898 32375 ft 441 kts 252°
2026-04-27 12:10 50.79593 -8.81848 32376 ft 441 kts 252°
2026-04-27 12:11 50.77301 -8.90845 32375 ft 441 kts 252°
2026-04-27 12:11 50.75002 -8.99840 32376 ft 441 kts 252°
2026-04-27 12:12 50.72696 -9.08839 32377 ft 442 kts 252°
2026-04-27 12:12 50.70378 -9.17840 32377 ft 442 kts 252°
2026-04-27 12:13 50.68069 -9.26770 32376 ft 443 kts 252°
2026-04-27 12:13 50.65731 -9.35772 32375 ft 443 kts 251°
2026-04-27 12:14 50.63383 -9.44786 32375 ft 446 kts 251°
2026-04-27 12:14 50.61015 -9.53837 32376 ft 447 kts 251°
2026-04-27 12:15 50.59036 -9.61374 32366 ft 447 kts 251°
2026-04-27 12:15 50.56252 -9.71931 32366 ft 449 kts 251°
2026-04-27 12:16 50.54258 -9.79469 32365 ft 449 kts 250°
2026-04-27 12:16 50.51849 -9.88535 32366 ft 450 kts 250°
2026-04-27 12:17 50.49432 -9.97599 32366 ft 450 kts 250°
2026-04-27 12:17 50.47005 -10.06670 32366 ft 450 kts 250°
2026-04-27 12:18 50.44588 -10.15663 32365 ft 450 kts 250°
2026-04-27 12:18 50.42145 -10.24712 32371 ft 450 kts 250°
2026-04-27 12:19 50.39692 -10.33762 32367 ft 450 kts 250°
2026-04-27 12:19 50.37238 -10.42782 32366 ft 449 kts 250°
2026-04-27 12:20 50.34780 -10.51788 32366 ft 449 kts 250°
2026-04-27 12:20 50.32319 -10.60768 32367 ft 448 kts 250°
2026-04-27 12:21 50.29853 -10.69730 32365 ft 448 kts 250°
2026-04-27 12:21 50.27388 -10.78657 32365 ft 447 kts 250°
2026-04-27 12:22 50.24932 -10.87514 32366 ft 446 kts 250°
2026-04-27 12:22 50.22460 -10.96397 32372 ft 445 kts 249°
2026-04-27 12:23 50.19986 -11.05253 32367 ft 444 kts 249°
2026-04-27 12:23 50.17507 -11.14099 32366 ft 444 kts 249°
2026-04-27 12:24 50.15025 -11.22916 32366 ft 443 kts 249°
2026-04-27 12:24 50.12556 -11.31657 32367 ft 442 kts 249°
2026-04-27 12:25 50.10074 -11.40417 32366 ft 442 kts 249°
2026-04-27 12:25 50.07582 -11.49174 32365 ft 442 kts 249°
2026-04-27 12:26 50.05083 -11.57919 32365 ft 441 kts 249°
2026-04-27 12:26 50.02595 -11.66600 32350 ft 442 kts 248°
2026-04-27 12:27 50.00082 -11.75334 32363 ft 441 kts 248°
2026-04-27 12:27 49.97571 -11.84033 32349 ft 441 kts 248°
2026-04-27 12:28 49.95053 -11.92722 32351 ft 441 kts 248°
2026-04-27 12:28 49.92542 -12.01356 32356 ft 441 kts 248°
2026-04-27 12:29 49.90007 -12.10039 32351 ft 441 kts 248°
2026-04-27 12:29 49.87469 -12.18702 32354 ft 441 kts 248°
2026-04-27 12:30 49.84921 -12.27369 32349 ft 441 kts 248°
2026-04-27 12:30 49.82367 -12.36026 32352 ft 441 kts 248°
2026-04-27 12:31 49.79823 -12.44620 32343 ft 441 kts 248°
2026-04-27 12:31 49.77256 -12.53257 32345 ft 441 kts 248°
2026-04-27 12:32 49.74689 -12.61871 32342 ft 441 kts 248°
2026-04-27 12:32 49.72110 -12.70487 32338 ft 441 kts 248°
2026-04-27 12:33 49.69532 -12.79070 32338 ft 441 kts 248°
2026-04-27 12:33 49.66957 -12.87609 32347 ft 440 kts 247°
2026-04-27 12:34 49.64455 -12.95881 32336 ft 440 kts 247°
2026-04-27 12:34 49.61850 -13.04473 32332 ft 439 kts 247°
2026-04-27 12:35 49.59253 -13.12995 32330 ft 439 kts 247°
2026-04-27 12:35 49.56651 -13.21504 32328 ft 439 kts 247°
2026-04-27 12:36 49.54047 -13.29997 32329 ft 438 kts 247°
2026-04-27 12:36 49.51440 -13.38471 32328 ft 438 kts 247°
2026-04-27 12:37 49.48843 -13.46886 32321 ft 437 kts 244°
2026-04-27 12:37 49.46274 -13.55177 32328 ft 435 kts 246°
2026-04-27 12:38 49.43659 -13.63593 32323 ft 437 kts 246°
2026-04-27 12:38 49.41032 -13.72016 32318 ft 437 kts 246°
2026-04-27 12:39 49.38397 -13.80433 32323 ft 437 kts 246°
2026-04-27 12:39 49.35755 -13.88844 32321 ft 437 kts 246°
2026-04-27 12:40 49.33112 -13.97229 32320 ft 436 kts 246°
2026-04-27 12:40 49.30483 -14.05545 32312 ft 435 kts 246°
2026-04-27 12:41 49.27842 -14.13870 32311 ft 434 kts 246°
2026-04-27 12:41 49.25201 -14.22174 32313 ft 433 kts 246°
2026-04-27 12:42 49.22553 -14.30466 32312 ft 434 kts 246°
2026-04-27 12:42 49.19894 -14.38762 32312 ft 433 kts 246°
2026-04-27 12:43 49.17256 -14.46965 32311 ft 432 kts 246°
2026-04-27 12:43 49.14592 -14.55220 32311 ft 433 kts 246°
2026-04-27 12:44 49.11927 -14.63459 32312 ft 433 kts 245°
2026-04-27 12:44 49.09256 -14.71692 32303 ft 432 kts 245°
2026-04-27 12:45 49.06580 -14.79912 32302 ft 432 kts 245°
2026-04-27 12:45 49.03916 -14.88063 32302 ft 432 kts 245°
2026-04-27 12:46 49.01185 -14.96201 32303 ft 432 kts 241°
2026-04-27 12:46 48.97471 -15.03391 32303 ft 433 kts 226°
2026-04-27 12:47 48.93102 -15.09711 32286 ft 433 kts 222°
2026-04-27 12:47 48.88653 -15.15786 32284 ft 432 kts 222°
2026-04-27 12:48 48.84166 -15.21881 32284 ft 432 kts 222°
2026-04-27 12:48 48.79702 -15.27979 32284 ft 432 kts 222°
2026-04-27 12:49 48.75241 -15.34089 32276 ft 432 kts 222°
2026-04-27 12:49 48.70807 -15.40151 32275 ft 432 kts 222°
2026-04-27 12:50 48.66342 -15.46236 32275 ft 432 kts 222°
2026-04-27 12:50 48.61878 -15.52304 32275 ft 431 kts 222°
2026-04-27 12:51 48.57419 -15.58351 32275 ft 430 kts 222°
2026-04-27 12:51 48.52948 -15.64400 32276 ft 430 kts 222°
2026-04-27 12:52 48.48494 -15.70410 32266 ft 430 kts 222°
2026-04-27 12:52 48.44035 -15.76411 32267 ft 429 kts 222°
2026-04-27 12:53 48.37378 -15.85343 32265 ft 429 kts 222°
2026-04-27 12:53 48.32904 -15.91329 32267 ft 429 kts 222°
2026-04-27 12:54 48.28441 -15.97286 32264 ft 429 kts 222°
2026-04-27 12:54 48.23959 -16.03251 32263 ft 429 kts 222°
2026-04-27 12:55 48.19511 -16.09157 32252 ft 429 kts 222°
2026-04-27 12:55 48.15028 -16.15095 32257 ft 429 kts 222°
2026-04-27 12:56 48.10548 -16.21015 32255 ft 429 kts 222°
2026-04-27 12:56 48.06096 -16.26885 32260 ft 428 kts 222°
2026-04-27 12:57 48.01618 -16.32777 32256 ft 428 kts 221°
2026-04-27 12:57 47.97137 -16.38655 32260 ft 428 kts 221°
2026-04-27 12:58 47.92680 -16.44490 32257 ft 429 kts 221°
2026-04-27 12:58 47.88190 -16.50355 32248 ft 428 kts 221°
2026-04-27 12:59 47.83712 -16.56190 32248 ft 428 kts 221°
2026-04-27 12:59 47.79232 -16.62011 32248 ft 427 kts 221°
2026-04-27 13:00 47.74753 -16.67818 32247 ft 427 kts 221°
2026-04-27 13:00 47.70300 -16.73575 32247 ft 426 kts 221°
2026-04-27 13:01 47.66577 -16.78380 32246 ft 426 kts 221°
2026-04-27 13:01 47.62099 -16.84149 32248 ft 426 kts 221°
2026-04-27 13:02 47.57618 -16.89904 32245 ft 425 kts 221°
2026-04-27 13:02 47.53146 -16.95639 32238 ft 425 kts 221°
2026-04-27 13:03 47.48674 -17.01358 32239 ft 424 kts 221°
2026-04-27 13:03 47.44202 -17.07054 32238 ft 424 kts 221°
2026-04-27 13:04 47.39760 -17.12709 32238 ft 423 kts 221°
2026-04-27 13:04 47.35295 -17.18383 32238 ft 423 kts 221°
2026-04-27 13:05 47.30842 -17.24029 32239 ft 422 kts 221°
2026-04-27 13:05 47.26384 -17.29662 32239 ft 422 kts 221°
2026-04-27 13:06 47.21918 -17.35295 32239 ft 422 kts 221°
2026-04-27 13:06 47.17484 -17.40875 32238 ft 422 kts 221°
2026-04-27 13:07 47.13011 -17.46488 32228 ft 422 kts 220°
2026-04-27 13:07 47.08540 -17.52087 32232 ft 422 kts 220°
2026-04-27 13:08 47.04069 -17.57676 32232 ft 422 kts 220°
2026-04-27 13:08 46.99598 -17.63252 32228 ft 421 kts 220°
2026-04-27 13:09 46.95129 -17.68811 32233 ft 421 kts 220°
2026-04-27 13:09 46.90686 -17.74327 32228 ft 421 kts 220°
2026-04-27 13:10 46.86206 -17.79870 32228 ft 421 kts 220°
2026-04-27 13:10 46.81716 -17.85415 32229 ft 421 kts 220°
2026-04-27 13:11 46.77240 -17.90935 32229 ft 421 kts 220°
2026-04-27 13:11 46.72766 -17.96438 32233 ft 422 kts 220°
2026-04-27 13:12 46.68299 -18.01920 32234 ft 422 kts 220°
2026-04-27 13:12 46.63823 -18.07402 32231 ft 418 kts 220°
2026-04-27 13:13 46.59355 -18.12858 32224 ft 418 kts 220°
2026-04-27 13:13 46.54924 -18.18258 32221 ft 418 kts 220°
2026-04-27 13:14 46.50457 -18.23692 32220 ft 419 kts 220°
2026-04-27 13:14 46.45986 -18.29121 32211 ft 419 kts 220°
2026-04-27 13:15 46.41519 -18.34532 32215 ft 419 kts 220°
2026-04-27 13:15 46.37043 -18.39937 32213 ft 419 kts 220°
2026-04-27 13:16 46.32565 -18.45335 32215 ft 419 kts 220°
2026-04-27 13:16 46.28111 -18.50694 32207 ft 419 kts 220°
2026-04-27 13:17 46.23620 -18.56082 32211 ft 418 kts 220°
2026-04-27 13:17 46.19145 -18.61444 32208 ft 418 kts 220°
2026-04-27 13:18 46.14666 -18.66798 32215 ft 417 kts 220°
2026-04-27 13:18 46.10213 -18.72108 32208 ft 417 kts 220°
2026-04-27 13:19 46.05752 -18.77416 32209 ft 416 kts 220°
2026-04-27 13:19 46.01286 -18.82720 32211 ft 415 kts 220°
2026-04-27 13:20 45.96820 -18.88010 32216 ft 416 kts 220°
2026-04-27 13:20 45.92356 -18.93286 32197 ft 415 kts 220°
2026-04-27 13:21 45.87894 -18.98548 32202 ft 415 kts 220°
2026-04-27 13:21 45.83463 -19.03765 32198 ft 414 kts 220°
2026-04-27 13:22 45.79008 -19.08999 32203 ft 414 kts 220°
2026-04-27 13:22 45.74551 -19.14222 32209 ft 414 kts 220°
2026-04-27 13:23 45.70094 -19.19436 32197 ft 413 kts 220°
2026-04-27 13:23 45.65645 -19.24629 32197 ft 412 kts 220°
2026-04-27 13:24 45.61208 -19.29795 32198 ft 411 kts 220°
2026-04-27 13:24 45.56772 -19.34951 32206 ft 411 kts 220°
2026-04-27 13:25 45.52369 -19.40058 32207 ft 410 kts 220°
2026-04-27 13:25 45.47934 -19.45194 32200 ft 411 kts 220°
2026-04-27 13:26 45.43492 -19.50325 32197 ft 410 kts 220°
2026-04-27 13:26 45.39045 -19.55449 32198 ft 410 kts 220°
2026-04-27 13:27 45.34636 -19.60518 32194 ft 410 kts 220°
2026-04-27 13:27 45.30194 -19.65617 32176 ft 410 kts 220°
2026-04-27 13:28 45.25745 -19.70714 32175 ft 410 kts 220°
2026-04-27 13:28 45.21321 -19.75769 32174 ft 410 kts 220°
2026-04-27 13:29 45.16869 -19.80846 32174 ft 410 kts 220°
2026-04-27 13:29 45.12422 -19.85909 32174 ft 410 kts 220°
2026-04-27 13:30 45.07990 -19.90945 32175 ft 410 kts 220°
2026-04-27 13:30 45.03527 -19.96005 32174 ft 411 kts 220°
2026-04-27 13:31 44.99069 -20.01075 32173 ft 411 kts 221°
2026-04-27 13:31 44.94683 -20.06222 32174 ft 407 kts 221°
2026-04-27 13:32 44.90374 -20.11328 32174 ft 406 kts 221°
2026-04-27 13:32 44.86040 -20.16443 32174 ft 406 kts 221°
2026-04-27 13:33 44.81698 -20.21544 32174 ft 406 kts 221°
2026-04-27 13:33 44.77379 -20.26602 32173 ft 406 kts 221°
2026-04-27 13:34 44.73026 -20.31689 32174 ft 406 kts 221°
2026-04-27 13:34 44.68671 -20.36769 32175 ft 406 kts 221°
2026-04-27 13:35 44.64315 -20.41839 32173 ft 406 kts 221°
2026-04-27 13:35 44.59990 -20.46863 32174 ft 406 kts 221°
2026-04-27 13:36 44.55630 -20.51920 32174 ft 406 kts 221°
2026-04-27 13:36 44.51268 -20.56966 32174 ft 406 kts 221°
2026-04-27 13:37 44.46909 -20.62000 32180 ft 406 kts 221°
2026-04-27 13:37 44.42550 -20.67024 32210 ft 406 kts 221°
2026-04-27 13:38 44.38213 -20.72013 32210 ft 405 kts 221°
2026-04-27 13:38 44.33861 -20.77009 32215 ft 405 kts 221°
2026-04-27 13:39 44.29501 -20.82005 32213 ft 405 kts 220°
2026-04-27 13:39 44.25148 -20.86982 32214 ft 404 kts 220°
2026-04-27 13:40 44.20799 -20.91945 32207 ft 404 kts 220°
2026-04-27 13:40 44.16818 -20.96480 32215 ft 403 kts 220°
2026-04-27 13:41 44.12429 -21.01469 32206 ft 403 kts 220°
2026-04-27 13:41 44.08084 -21.06398 32213 ft 402 kts 220°
2026-04-27 13:42 44.03748 -21.11308 32209 ft 402 kts 220°
2026-04-27 13:42 43.99415 -21.16205 32213 ft 401 kts 220°
2026-04-27 13:43 43.95075 -21.21099 32158 ft 402 kts 220°
2026-04-27 13:43 43.90761 -21.25954 32148 ft 401 kts 220°
2026-04-27 13:44 43.86430 -21.30822 32147 ft 401 kts 220°
2026-04-27 13:44 43.82095 -21.35684 32131 ft 400 kts 220°
2026-04-27 13:45 43.77762 -21.40534 32131 ft 400 kts 220°
2026-04-27 13:45 43.73437 -21.45367 32140 ft 399 kts 220°
2026-04-27 13:46 43.69831 -21.49389 32141 ft 399 kts 220°
2026-04-27 13:46 43.64805 -21.54982 32139 ft 399 kts 220°
2026-04-27 13:47 43.60478 -21.59788 32143 ft 399 kts 220°
2026-04-27 13:47 43.56875 -21.63781 32143 ft 399 kts 219°
2026-04-27 13:48 43.52547 -21.68569 32136 ft 399 kts 219°
2026-04-27 13:48 43.48214 -21.73356 32144 ft 399 kts 219°
2026-04-27 13:49 43.43879 -21.78139 32143 ft 399 kts 219°
2026-04-27 13:49 43.39551 -21.82905 32142 ft 399 kts 219°
2026-04-27 13:50 43.35214 -21.87667 32131 ft 399 kts 219°
2026-04-27 13:50 43.30901 -21.92397 32138 ft 399 kts 219°
2026-04-27 13:51 43.26556 -21.97152 32138 ft 399 kts 219°
2026-04-27 13:51 43.22205 -22.01904 32141 ft 400 kts 219°
2026-04-27 13:52 43.17869 -22.06632 32143 ft 397 kts 219°
2026-04-27 13:52 43.13554 -22.11328 32150 ft 395 kts 219°
2026-04-27 13:53 43.07093 -22.18343 32150 ft 395 kts 219°
2026-04-27 13:54 43.02781 -22.23015 32152 ft 395 kts 219°
2026-04-27 13:54 42.98467 -22.27681 32132 ft 395 kts 219°
2026-04-27 13:55 42.94154 -22.32334 32131 ft 395 kts 219°
2026-04-27 13:55 42.89834 -22.36988 32140 ft 395 kts 219°
2026-04-27 13:56 42.85518 -22.41630 32141 ft 395 kts 219°
2026-04-27 13:56 42.81196 -22.46269 32132 ft 395 kts 219°
2026-04-27 13:57 42.76873 -22.50902 32136 ft 395 kts 219°
2026-04-27 13:57 42.72543 -22.55529 32145 ft 395 kts 219°
2026-04-27 13:58 42.68211 -22.60155 32144 ft 395 kts 219°
2026-04-27 13:58 42.63912 -22.64736 32145 ft 395 kts 219°
2026-04-27 13:59 42.59589 -22.69335 32149 ft 394 kts 219°
2026-04-27 13:59 42.55265 -22.73926 32143 ft 394 kts 219°
2026-04-27 14:00 42.50934 -22.78517 32152 ft 394 kts 219°
2026-04-27 14:00 42.46611 -22.83089 32143 ft 394 kts 219°
2026-04-27 14:01 42.42279 -22.87663 32150 ft 394 kts 219°
2026-04-27 14:01 42.37960 -22.92216 32156 ft 394 kts 218°
2026-04-27 14:02 42.33664 -22.96736 32157 ft 393 kts 218°
2026-04-27 14:02 42.29347 -23.01268 32156 ft 392 kts 219°
2026-04-27 14:03 42.25039 -23.05786 32157 ft 392 kts 218°
2026-04-27 14:03 42.20733 -23.10293 32155 ft 392 kts 218°
2026-04-27 14:04 42.16422 -23.14795 32156 ft 391 kts 218°
2026-04-27 14:04 42.12123 -23.19279 32156 ft 391 kts 218°
2026-04-27 14:05 42.07855 -23.23723 32155 ft 390 kts 218°
2026-04-27 14:05 42.03553 -23.28194 32155 ft 389 kts 218°
2026-04-27 14:06 41.99262 -23.32648 32154 ft 389 kts 218°
2026-04-27 14:06 41.94961 -23.37102 32156 ft 390 kts 219°
2026-04-27 14:07 41.90665 -23.41543 32155 ft 390 kts 219°
2026-04-27 14:07 41.86366 -23.45979 32163 ft 389 kts 219°
2026-04-27 14:08 41.82097 -23.50376 32164 ft 389 kts 219°
2026-04-27 14:08 41.77801 -23.54794 32164 ft 389 kts 219°
2026-04-27 14:09 41.73506 -23.59204 32156 ft 389 kts 219°
2026-04-27 14:09 41.69213 -23.63603 32157 ft 389 kts 219°
2026-04-27 14:10 41.64918 -23.67997 32155 ft 388 kts 219°
2026-04-27 14:10 41.60652 -23.72354 32155 ft 388 kts 219°
2026-04-27 14:11 41.56354 -23.76736 32155 ft 388 kts 219°
2026-04-27 14:11 41.52053 -23.81111 32155 ft 388 kts 219°
2026-04-27 14:12 41.47780 -23.85455 32166 ft 388 kts 219°
2026-04-27 14:12 41.43467 -23.89832 32164 ft 389 kts 219°
2026-04-27 14:13 41.39150 -23.94203 32165 ft 389 kts 219°
2026-04-27 14:13 41.34830 -23.98570 32166 ft 389 kts 219°
2026-04-27 14:14 41.30530 -24.02909 32165 ft 389 kts 219°
2026-04-27 14:14 41.26222 -24.07248 32166 ft 387 kts 219°
2026-04-27 14:15 41.21925 -24.11569 32165 ft 387 kts 219°
2026-04-27 14:15 41.17622 -24.15890 32166 ft 387 kts 219°
2026-04-27 14:16 41.13356 -24.20169 32171 ft 387 kts 219°
2026-04-27 14:16 41.09057 -24.24473 32175 ft 387 kts 219°
2026-04-27 14:17 41.04768 -24.28755 32175 ft 387 kts 219°
2026-04-27 14:17 41.00458 -24.33055 32123 ft 388 kts 219°
2026-04-27 14:18 40.96141 -24.37352 32101 ft 388 kts 219°
2026-04-27 14:18 40.91829 -24.41638 32118 ft 387 kts 219°
2026-04-27 14:19 40.87516 -24.45917 32121 ft 388 kts 219°
2026-04-27 14:19 40.83198 -24.50194 32107 ft 388 kts 219°
2026-04-27 14:20 40.78875 -24.54471 32117 ft 388 kts 219°
2026-04-27 14:20 40.74570 -24.58721 32121 ft 389 kts 219°
2026-04-27 14:21 40.70242 -24.62988 32120 ft 388 kts 219°
2026-04-27 14:21 40.65913 -24.67251 32112 ft 388 kts 219°
2026-04-27 14:22 40.61582 -24.71503 32125 ft 388 kts 219°
2026-04-27 14:22 40.57250 -24.75752 32122 ft 389 kts 219°
2026-04-27 14:23 40.52914 -24.79999 32117 ft 388 kts 219°
2026-04-27 14:23 40.48592 -24.84225 32112 ft 388 kts 219°
2026-04-27 14:24 40.44257 -24.88456 32114 ft 388 kts 219°
2026-04-27 14:24 40.39921 -24.92681 32122 ft 388 kts 219°
2026-04-27 14:25 40.35602 -24.96880 32110 ft 387 kts 219°
2026-04-27 14:25 40.31271 -25.01083 32128 ft 387 kts 219°
2026-04-27 14:26 40.26942 -25.05283 32114 ft 387 kts 219°
2026-04-27 14:26 40.22616 -25.09474 32123 ft 386 kts 219°
2026-04-27 14:27 40.18292 -25.13651 32111 ft 386 kts 219°
2026-04-27 14:27 40.13971 -25.17819 32121 ft 385 kts 219°
2026-04-27 14:28 40.09685 -25.21952 32147 ft 385 kts 219°
2026-04-27 14:28 40.05341 -25.26128 32144 ft 385 kts 219°
2026-04-27 14:29 40.01050 -25.30249 32143 ft 385 kts 219°
2026-04-27 14:29 39.96733 -25.34385 32144 ft 385 kts 219°
2026-04-27 14:30 39.92402 -25.38532 32150 ft 386 kts 219°
2026-04-27 14:30 39.88495 -25.43230 32138 ft 382 kts 230°
2026-04-27 14:30 39.86733 -25.45827 31883 ft 383 kts 232°
2026-04-27 14:31 39.85031 -25.48435 31307 ft 383 kts 232°
2026-04-27 14:31 39.83328 -25.51099 30656 ft 383 kts 232°
2026-04-27 14:31 39.81627 -25.53779 30038 ft 385 kts 232°
2026-04-27 14:31 39.79911 -25.56481 29524 ft 386 kts 232°
2026-04-27 14:32 39.78774 -25.58264 29225 ft 386 kts 232°
2026-04-27 14:32 39.77063 -25.60937 28770 ft 385 kts 231°
2026-04-27 14:32 39.75348 -25.63605 28321 ft 382 kts 231°
2026-04-27 14:32 39.73646 -25.66244 27873 ft 380 kts 231°
2026-04-27 14:33 39.71954 -25.68866 27421 ft 378 kts 231°
2026-04-27 14:33 39.70243 -25.71513 26968 ft 389 kts 231°
2026-04-27 14:33 39.68482 -25.74237 26508 ft 395 kts 231°
2026-04-27 14:33 39.66139 -25.77855 25916 ft 395 kts 230°
2026-04-27 14:34 39.64944 -25.79698 25599 ft 394 kts 230°
2026-04-27 14:34 39.63181 -25.82415 25152 ft 391 kts 230°
2026-04-27 14:34 39.61433 -25.85109 24698 ft 389 kts 230°
2026-04-27 14:34 39.59719 -25.87748 24259 ft 386 kts 230°
2026-04-27 14:35 39.57988 -25.90407 23816 ft 383 kts 230°
2026-04-27 14:35 39.56271 -25.93047 23358 ft 381 kts 230°
2026-04-27 14:35 39.54566 -25.95665 22899 ft 379 kts 230°
2026-04-27 14:35 39.52873 -25.98264 22437 ft 377 kts 230°
2026-04-27 14:36 39.51182 -26.00856 21936 ft 374 kts 230°
2026-04-27 14:36 39.49508 -26.03421 21437 ft 371 kts 230°
2026-04-27 14:36 39.47846 -26.05967 20947 ft 368 kts 229°
2026-04-27 14:36 39.46215 -26.08462 20434 ft 365 kts 229°
2026-04-27 14:37 39.44583 -26.10958 19942 ft 362 kts 229°
2026-04-27 14:37 39.42960 -26.13435 19443 ft 359 kts 229°
2026-04-27 14:37 39.41350 -26.15891 18944 ft 356 kts 229°
2026-04-27 14:37 39.39752 -26.18328 18445 ft 354 kts 229°
2026-04-27 14:38 39.38164 -26.20747 17948 ft 351 kts 229°
2026-04-27 14:38 39.36586 -26.23148 17447 ft 349 kts 229°
2026-04-27 14:38 39.35020 -26.25529 16947 ft 346 kts 229°
2026-04-27 14:38 39.33464 -26.27893 16441 ft 344 kts 229°
2026-04-27 14:39 39.31918 -26.30240 15948 ft 342 kts 228°
2026-04-27 14:39 39.30380 -26.32575 15446 ft 339 kts 228°
2026-04-27 14:39 39.28857 -26.34887 14947 ft 337 kts 228°
2026-04-27 14:39 39.27388 -26.37230 14445 ft 335 kts 234°
2026-04-27 14:40 39.26204 -26.39814 13948 ft 334 kts 239°
2026-04-27 14:40 39.25134 -26.42418 13455 ft 332 kts 240°
2026-04-27 14:40 39.24066 -26.45097 12954 ft 331 kts 240°
2026-04-27 14:40 39.23033 -26.47730 12449 ft 328 kts 240°
2026-04-27 14:41 39.22020 -26.50322 11955 ft 326 kts 240°
2026-04-27 14:41 39.21006 -26.52921 11475 ft 323 kts 240°
2026-04-27 14:41 39.19996 -26.55509 11081 ft 321 kts 240°
2026-04-27 14:41 39.18994 -26.58075 10724 ft 320 kts 240°
2026-04-27 14:42 39.17998 -26.60627 10374 ft 318 kts 240°
2026-04-27 14:42 39.17004 -26.63167 10029 ft 315 kts 240°
2026-04-27 14:42 39.16019 -26.65686 9672 ft 314 kts 240°
2026-04-27 14:42 39.15041 -26.68187 9322 ft 312 kts 240°
2026-04-27 14:43 39.14064 -26.70680 8976 ft 310 kts 240°
2026-04-27 14:43 39.13104 -26.73127 8627 ft 309 kts 240°
2026-04-27 14:43 39.12137 -26.75592 8278 ft 307 kts 240°
2026-04-27 14:43 39.11178 -26.78034 7930 ft 306 kts 240°
2026-04-27 14:44 39.10220 -26.80468 7578 ft 304 kts 240°
2026-04-27 14:44 39.09266 -26.82892 7233 ft 302 kts 240°
2026-04-27 14:44 39.08320 -26.85298 6877 ft 299 kts 240°
2026-04-27 14:44 39.07397 -26.87646 6531 ft 287 kts 240°
2026-04-27 14:45 39.06515 -26.89888 6206 ft 274 kts 240°
2026-04-27 14:45 39.05671 -26.92030 5915 ft 263 kts 239°
2026-04-27 14:45 39.04855 -26.94096 5624 ft 254 kts 239°
2026-04-27 14:45 39.04062 -26.96100 5325 ft 249 kts 239°
2026-04-27 14:46 39.03286 -26.98058 5030 ft 248 kts 239°
2026-04-27 14:46 39.02505 -27.00023 4731 ft 246 kts 239°
2026-04-27 14:46 39.01725 -27.01990 4431 ft 246 kts 239°
2026-04-27 14:46 39.00953 -27.03939 4142 ft 244 kts 239°
2026-04-27 14:47 39.00187 -27.05874 3832 ft 242 kts 239°
2026-04-27 14:47 38.99424 -27.07804 3531 ft 241 kts 239°
2026-04-27 14:47 38.98666 -27.09715 3304 ft 239 kts 239°
2026-04-27 14:47 38.97910 -27.11616 3192 ft 239 kts 239°
2026-04-27 14:48 38.97150 -27.13519 3066 ft 240 kts 238°
2026-04-27 14:48 38.95637 -27.17326 2817 ft 239 kts 239°
2026-04-27 14:48 38.94878 -27.19235 2695 ft 239 kts 239°
2026-04-27 14:49 38.94061 -27.21091 2575 ft 237 kts 231°
2026-04-27 14:49 38.92904 -27.22515 2488 ft 225 kts 209°
2026-04-27 14:49 38.91480 -27.23183 2441 ft 221 kts 187°
2026-04-27 14:49 38.89961 -27.23044 2396 ft 221 kts 165°
2026-04-27 14:50 38.88585 -27.22175 2345 ft 221 kts 148°
2026-04-27 14:50 38.87381 -27.20949 2299 ft 221 kts 142°
2026-04-27 14:50 38.86227 -27.19664 2243 ft 211 kts 142°
2026-04-27 14:50 38.85163 -27.18494 2111 ft 192 kts 143°
2026-04-27 14:51 38.84162 -27.17444 1852 ft 181 kts 144°
2026-04-27 14:51 38.83217 -27.16459 1623 ft 172 kts 144°
2026-04-27 14:51 38.82341 -27.15534 1403 ft 151 kts 144°
2026-04-27 14:51 38.81845 -27.15009 1270 ft 130 kts 144°
2026-04-27 14:52 38.80987 -27.14104 1010 ft 113 kts 144°
2026-04-27 14:52 38.80416 -27.13446 765 ft 108 kts 146°
2026-04-27 14:52 38.79816 -27.12812 725 ft 117 kts 146°
2026-04-27 14:52 38.79184 -27.12185 559 ft 112 kts 146°
2026-04-27 14:53 38.78581 -27.11569 401 ft 110 kts 145°
2026-04-27 14:53 38.78012 -27.10954 236 ft 113 kts 139°
2026-04-27 14:53 38.77354 -27.10274 173 ft 122 kts 142°
2026-04-27 14:53 38.76810 -27.09728 178 ft 68 kts 140°
2026-04-27 14:54 38.76538 -27.09450 180 ft 41 kts 140°
2026-04-27 14:54 38.76345 -27.09250 180 ft 36 kts 142°
2026-04-27 14:54 38.76247 -27.09068 182 ft 12 kts 62°
2026-04-27 14:54 38.76350 -27.09059 181 ft 19 kts
2026-04-27 14:55 38.76459 -27.09118 180 ft 23 kts 322°
2026-04-27 14:55 38.76621 -27.09294 179 ft 32 kts 319°
2026-04-27 14:55 38.76755 -27.09422 178 ft 12 kts 338°
2026-04-27 14:55 38.76778 -27.09409 178 ft 4 kts 60°
2026-04-27 14:56 38.76783 -27.09364 178 ft 4 kts 82°
2026-04-27 14:56 38.76788 -27.09330 178 ft 0 kts 81°